Regional Weather Roundup
Issued by NWS

Home | Current Version | Previous Version | Text Only | Print | Product List | Glossary Off
Versions: 1 2 3 4 5 6 7 8 9 10 11 12 13 14 15 16 17 18 19 20 21 22 23 24 25 26 27 28 29 30 31 32 33 34 35 36 37 38 39 40 41 42 43 44 45 46 47 48 49 50

000
ASUS43 KLSX 071907
RWRMO

WEATHER SUMMARY FOR MISSOURI
NATIONAL WEATHER SERVICE SPRINGFIELD MO
100 PM CST SUN FEB 07 2016

NOTE: "FAIR" INDICATES FEW OR NO CLOUDS BELOW 12,000 FEET WITH NO
       SIGNIFICANT WEATHER AND/OR OBSTRUCTIONS TO VISIBILITY.
       CURRENT SKY AND/OR WEATHER CONDITIONS ARE NOT AVAILABLE FOR
       CHILLICOTHE AND FARMINGTON.

MOZ001>031-035>038-043-044-053-054-072000-
...NORTHERN AND WESTERN MISSOURI...

CITY           SKY/WX    TMP DP  RH WIND       PRES   REMARKS
KANSAS CTY INT CLOUDY    50  26  39 NW18G24   30.03F
KANSAS C DTWN  CLOUDY    51  23  33 NW15G28   30.03F
LEE`S SUMMIT   CLOUDY    49  22  34 NW17      30.03F
ST JOSEPH      MOSUNNY   48  27  44 NW20G30   30.02F
CHILLICOTHE      N/A     52  27  38 NW16G26   29.98F
KIRKSVILLE     LGT RAIN  51  22  31 NW14G25   29.91F

$$
MOZ066>068-077>081-088>096-101>105-072000-
...SOUTHWEST MISSOURI...

CITY           SKY/WX    TMP DP  RH WIND       PRES   REMARKS
SPRINGFIELD    CLOUDY    49  28  44 NW14G23   30.03F
JOPLIN         MOSUNNY   48  29  47 W13       30.10F

$$
MOZ032>034-039>042-045>050-055>058-069>072-072000-
...CENTRAL MISSOURI...

CITY           SKY/WX    TMP DP  RH WIND       PRES   REMARKS
COLUMBIA       CLOUDY    50  29  44 W17       29.95F
JEFFERSON CITY MOSUNNY   48  29  47 W14       29.97F
ROLLA          MOSUNNY   49  29  46 W15       29.93F
SEDALIA        SUNNY     53  31  42 W16G22    29.99F
WHITEMAN AFB   MOSUNNY   52  28  40 NW16      29.98F
WARRENSBURG    MOSUNNY   50  27  40 W16G22    30.01F
OSAGE BEACH    SUNNY     48  28  46 W10G20    29.99F

$$
MOZ051-052-059>065-072000-
...EAST CENTRAL MISSOURI...

CITY           SKY/WX    TMP DP  RH WIND       PRES   REMARKS
ST LOUIS INTL  CLOUDY    55  28  35 W16       29.90F
SPIRIT OF STL  MOSUNNY   51  29  42 W14G22    29.91F
ST CHARLES     MOSUNNY   49  30  48 W16       29.90F

$$
MOZ072>076-082>087-097>100-106>115-072000-
...SOUTH CENTRAL AND SOUTHEAST MISSOURI...

CITY           SKY/WX    TMP DP  RH WIND       PRES   REMARKS
CAPE GIRARDEAU CLOUDY    55  30  38 S21G29    29.97F
FARMINGTON     SUNNY     54  25  32 W15G24    29.93F
POPLAR BLUFF   PTSUNNY   54  30  40 S16G23    29.98F
WEST PLAINS    MOSUNNY   51  25  36 W16G28    29.99F

$$


USA.gov is the U.S. government's official web portal to all federal, state and local government web resources and services.